カタログに戻る

FENGYUN 1C DEB

運用中SSO
NORAD 30949·DEBRIS·🇨🇳 China

打ち上げ May 10, 1999 から Taiyuan Satellite Launch Center

Loading…

次のパス (今後24時間)

TLE

最新Source: Space-Track

元期: Sep 14, 2026, 22:33 UTC

1 30949U 99025BAP 26257.93990147  .00000204  00000-0  12195-3 0  9991
2 30949  98.7151 250.3286 0115569 240.8674 147.3556 14.14268862  4188

AllMySatでFENGYUN 1C DEBをリアルタイム追跡

Download on the App Store